Temp
71 72 67 66 58 53 47 51 56 57 56 59 63 60 59 56 56 52 64 68 69 69 71 72 74 75 75 75 75 75 76 77 77 76 76 76 76 76 75 75 75 75 76 76 76 76 75 74 74
72 74 68 59 51 45 48 53 56 58 60 60 61 59 57 53 60 63 64 68 70 70 70 70 72 74 75 75 75 75 76 76 77 77 76 76 76 76 76 75 75 75 75 75 75 75 75 74 73
76 73 64 54 47 46 48 54 57 58 60 59 58 61 58 57 60 65 67 69 69 68 69 70 72 74 75 74 75 75 75 76 76 76 77 76 76 75 75 75 74 74 74 75 75 74 74 73 73
71 68 63 53 48 52 54 57 59 59 59 61 58 55 59 64 63 66 69 69 67 67 68 70 72 74 74 74 75 75 75 76 76 75 76 75 75 75 74 74 74 73 74 74 74 74 74 73 72
69 60 53 49 50 54 55 60 59 58 58 57 57 52 54 63 67 69 69 68 66 65 67 69 72 73 74 74 75 74 75 75 75 75 75 74 74 74 74 74 73 73 73 73 73 73 73 73 72
62 60 50 46 49 57 57 60 60 58 58 56 55 54 57 64 66 66 70 65 67 66 67 68 68 70 72 73 73 73 74 74 74 74 74 74 73 73 73 73 72 72 72 72 72 72 72 71 71
60 54 50 50 49 55 59 61 57 59 58 57 59 53 55 61 66 68 69 68 65 66 66 66 67 67 68 69 70 71 72 73 73 73 73 72 71 71 72 72 72 72 72 72 71 71 71 71 70
60 56 52 49 50 53 59 61 61 60 57 59 60 52 55 60 66 68 68 66 64 64 65 65 65 66 65 66 66 67 69 70 70 69 67 66 67 67 68 67 70 71 71 71 70 70 70 70 69
62 52 49 52 53 56 60 58 61 60 60 55 57 57 61 63 65 64 64 64 62 63 63 64 64 64 64 64 62 64 66 66 65 64 63 62 62 62 63 64 67 69 69 70 70 69 69 66 65
55 51 53 61 55 54 58 58 61 57 56 53 55 58 61 63 63 62 62 62 61 61 64 63 63 62 63 66 62 63 63 62 62 62 61 61 61 61 62 61 64 66 66 68 69 69 66 62 59
53 51 59 61 60 58 58 57 59 57 54 58 57 57 59 61 62 62 62 63 61 61 64 63 62 62 62 62 60 60 60 59 60 60 60 60 60 59 58 58 58 58 59 59 61 60 60 60 59
48 55 57 61 59 58 56 58 57 58 60 62 62 61 60 60 61 62 62 64 62 60 62 63 62 62 61 62 60 59 59 58 58 59 60 59 57 57 56 56 56 56 57 57 57 57 59 59 59
48 52 54 58 59 57 59 56 56 58 61 59 60 60 60 61 61 62 64 64 62 61 62 62 62 62 61 61 60 59 59 58 59 59 60 59 57 56 56 55 55 55 56 56 56 57 58 59 59
54 54 53 55 56 58 55 55 56 59 56 57 58 58 60 61 61 60 61 61 62 63 62 62 62 62 61 60 60 60 59 60 59 59 59 60 58 57 56 56 56 56 56 57 57 57 57 58 58
54 48 49 52 55 55 58 52 54 60 56 55 56 57 58 60 60 62 63 62 63 64 63 62 63 62 61 61 61 60 60 61 60 60 60 60 60 58 58 57 56 57 57 58 57 57 57 57 58
48 47 41 50 51 56 57 48 61 61 55 55 54 54 57 58 61 64 62 63 62 64 64 64 66 63 61 61 61 61 60 59 60 61 61 61 61 60 58 57 57 58 57 57 57 57 56 56 56
45 38 41 46 52 53 54 49 61 63 55 55 53 54 56 57 58 61 62 62 63 64 64 63 64 62 62 62 62 61 60 59 59 60 60 61 61 60 60 59 58 59 58 57 57 56 56 55 55
37 43 41 44 49 50 47 50 56 54 54 57 54 54 55 56 58 62 61 62 62 64 64 64 64 63 63 62 60 58 58 60 58 61 62 61 61 60 59 58 59 59 57 57 56 56 56 56 56
43 42 41 46 50 46 48 50 54 58 50 52 53 52 55 57 61 62 62 61 60 62 62 63 63 63 63 61 60 59 60 60 56 58 60 60 61 60 60 58 58 58 58 57 57 56 55 54 55
43 41 42 47 49 48 45 46 52 52 54 58 55 54 56 57 57 58 60 60 61 63 63 63 64 63 64 65 64 61 59 58 62 59 59 61 60 61 61 59 58 58 58 57 56 55 54 54 55
44 42 41 43 44 45 44 44 44 51 55 56 56 57 58 58 58 58 58 60 62 61 62 63 64 65 65 66 65 58 58 57 57 57 59 60 61 61 61 59 59 59 59 58 57 56 55 54 54
42 46 46 45 42 37 45 34 42 47 50 51 57 56 57 56 58 60 59 60 61 62 64 65 64 65 65 66 65 64 64 62 62 63 62 59 60 61 61 60 60 60 59 58 58 57 57 55 56
44 49 45 42 40 42 38 38 40 43 46 50 55 57 61 60 58 59 60 62 63 64 63 64 64 64 65 65 66 64 63 63 63 61 59 59 59 61 61 61 60 60 59 60 59 56 56 56 57
48 45 44 43 41 34 40 39 39 43 50 51 53 58 60 60 57 60 62 63 63 64 65 63 63 63 64 64 64 63 64 62 60 59 59 59 60 59 61 61 61 61 60 59 59 59 58 58 58
47 44 34 33 32 33 39 36 46 47 49 52 53 53 55 58 59 59 57 58 61 61 63 62 62 62 63 63 63 64 62 62 60 60 60 59 58 59 60 60 60 61 60 60 59 59 58 58 58
44 45 34 29 29 32 36 34 41 52 59 54 54 54 52 52 54 56 58 59 61 60 61 62 60 61 62 62 62 63 63 62 62 62 62 61 61 61 61 60 61 61 61 60 59 59 59 59 58
43 40 46 32 19 26 31 36 45 48 50 49 50 52 52 53 52 52 53 57 59 59 61 61 61 61 61 61 62 62 62 62 62 62 62 63 62 63 60 60 60 60 60 60 60 60 59 59 58
46 51 38 37 21 21 29 30 39 44 50 51 48 51 52 52 52 52 52 52 54 57 59 60 62 61 61 61 62 62 62 62 63 62 61 61 62 59 58 58 59 59 60 60 61 60 60 59 58
43 42 43 45 33 27 23 32 42 51 54 50 50 50 52 51 51 52 52 50 50 51 53 55 56 57 58 59 60 60 61 61 61 61 61 60 59 58 58 58 59 60 61 62 60 60 59 58 58
49 47 46 39 34 31 30 33 45 48 47 50 51 52 50 49 50 49 50 49 48 49 49 51 52 54 56 57 58 57 58 57 56 57 58 57 59 59 61 61 60 61 61 61 60 59 58 57 56
MSLP
1015.28 1014.76 1014.64 1015.00 1016.69 1017.35 1017.34 1016.99 1016.61 1016.75 1016.99 1017.22 1017.46 1017.90 1018.50 1019.24 1019.57 1020.33 1019.78 1019.92 1020.01 1020.17 1020.27 1020.44 1020.67 1020.86 1021.03 1021.10 1021.14 1021.22 1021.21 1021.27 1021.41 1021.58 1021.79 1021.90 1022.06 1022.24 1022.35 1022.45 1022.47 1022.57 1022.58 1022.57 1022.64 1022.68 1022.77 1022.82 1022.90
1015.38 1014.72 1014.98 1016.18 1017.27 1017.80 1017.67 1016.96 1016.83 1016.84 1017.19 1017.41 1017.80 1018.37 1018.86 1019.59 1019.66 1019.81 1019.95 1020.23 1020.24 1020.33 1020.50 1020.68 1020.84 1021.08 1021.24 1021.38 1021.44 1021.46 1021.39 1021.39 1021.54 1021.75 1021.99 1022.15 1022.40 1022.57 1022.67 1022.80 1022.90 1023.07 1023.07 1023.03 1023.07 1023.19 1023.22 1023.36 1023.36
1015.19 1015.19 1016.03 1016.95 1017.83 1017.76 1017.30 1016.86 1016.81 1017.10 1017.22 1017.45 1018.27 1018.79 1019.12 1019.69 1019.79 1019.79 1019.69 1020.17 1020.49 1020.75 1020.80 1020.83 1020.98 1021.26 1021.53 1021.64 1021.72 1021.80 1021.81 1021.76 1021.83 1022.02 1022.26 1022.45 1022.77 1022.97 1023.09 1023.17 1023.33 1023.47 1023.46 1023.40 1023.51 1023.65 1023.69 1023.77 1023.83
1015.67 1015.88 1016.83 1017.24 1017.55 1017.09 1016.80 1016.59 1016.72 1017.24 1017.59 1017.68 1018.27 1019.36 1019.35 1019.37 1019.51 1019.61 1019.85 1020.21 1020.79 1021.11 1021.09 1021.05 1021.11 1021.38 1021.68 1021.84 1021.93 1022.03 1022.05 1022.09 1022.28 1022.39 1022.61 1022.92 1023.16 1023.31 1023.53 1023.59 1023.70 1023.83 1023.83 1023.81 1023.93 1023.99 1023.97 1024.08 1024.23
1016.26 1016.98 1017.49 1017.70 1017.33 1016.71 1016.43 1016.42 1016.89 1017.26 1017.55 1018.05 1018.36 1019.62 1019.70 1019.45 1019.26 1019.68 1020.07 1020.43 1020.92 1021.28 1021.37 1021.31 1021.25 1021.44 1021.74 1021.97 1022.16 1022.31 1022.32 1022.44 1022.59 1022.76 1023.04 1023.29 1023.60 1023.73 1023.89 1024.02 1024.18 1024.27 1024.32 1024.36 1024.42 1024.45 1024.51 1024.60 1024.76
1017.24 1017.68 1018.02 1018.01 1017.43 1016.61 1016.21 1016.37 1016.91 1017.39 1017.76 1018.42 1018.92 1019.67 1019.94 1019.66 1019.69 1020.13 1020.31 1020.74 1021.00 1021.20 1021.53 1021.61 1021.60 1021.63 1021.87 1022.12 1022.32 1022.48 1022.67 1022.77 1022.84 1023.04 1023.29 1023.60 1023.87 1024.05 1024.22 1024.40 1024.63 1024.72 1024.78 1024.83 1024.83 1024.89 1025.02 1025.15 1025.24
1017.89 1018.14 1018.28 1018.07 1017.63 1016.73 1016.31 1016.41 1016.93 1017.32 1017.73 1018.16 1018.65 1019.95 1020.21 1020.09 1019.97 1020.18 1020.51 1020.89 1021.19 1021.40 1021.57 1021.92 1022.02 1022.05 1022.04 1022.30 1022.55 1022.71 1022.95 1023.10 1023.25 1023.47 1023.63 1023.87 1024.18 1024.40 1024.55 1024.74 1024.97 1025.10 1025.14 1025.18 1025.22 1025.29 1025.43 1025.55 1025.65
1018.53 1018.56 1018.40 1018.10 1017.48 1016.97 1016.39 1016.44 1016.60 1017.16 1017.79 1018.18 1018.46 1019.43 1020.03 1019.70 1019.84 1020.32 1020.78 1021.33 1021.55 1021.66 1021.68 1022.04 1022.20 1022.38 1022.57 1022.73 1022.79 1023.01 1023.24 1023.41 1023.78 1024.00 1024.21 1024.47 1024.61 1024.82 1025.11 1025.24 1025.29 1025.39 1025.47 1025.52 1025.54 1025.61 1025.70 1025.85 1025.94
1018.99 1018.89 1018.38 1018.01 1017.64 1017.13 1016.81 1016.67 1016.75 1017.10 1017.62 1018.38 1018.62 1018.79 1018.58 1019.01 1019.88 1020.42 1021.05 1021.69 1021.94 1022.09 1022.02 1022.15 1022.34 1022.56 1022.80 1023.06 1023.27 1023.31 1023.58 1023.85 1024.20 1024.59 1024.77 1024.98 1025.17 1025.34 1025.52 1025.59 1025.60 1025.62 1025.65 1025.72 1025.82 1025.87 1025.96 1026.17 1026.13
1019.53 1018.97 1018.27 1017.76 1017.53 1017.35 1017.14 1016.97 1016.96 1017.33 1017.91 1018.54 1018.73 1018.79 1018.87 1019.19 1019.85 1020.28 1020.75 1021.38 1021.96 1022.22 1022.21 1022.31 1022.55 1022.78 1023.13 1023.25 1023.61 1023.72 1023.95 1024.26 1024.48 1024.75 1024.99 1025.26 1025.48 1025.58 1025.73 1025.81 1025.81 1025.85 1025.83 1025.86 1025.94 1026.03 1026.15 1026.40 1026.51
1019.85 1019.07 1018.34 1018.04 1017.69 1017.73 1017.52 1017.16 1017.31 1017.51 1018.07 1017.85 1018.28 1018.75 1019.10 1019.48 1019.90 1020.23 1020.53 1020.79 1021.45 1021.97 1022.18 1022.40 1022.59 1022.84 1023.07 1023.57 1023.99 1024.25 1024.42 1024.41 1024.62 1024.83 1025.02 1025.27 1025.47 1025.62 1025.86 1026.15 1026.24 1026.18 1026.17 1026.35 1026.38 1026.45 1026.56 1026.62 1026.69
1020.35 1019.23 1018.74 1018.32 1018.17 1017.92 1017.83 1017.65 1017.50 1017.62 1017.15 1017.02 1017.44 1018.07 1018.78 1019.37 1019.62 1019.82 1020.15 1020.60 1021.08 1021.76 1021.97 1022.36 1022.53 1022.75 1023.09 1023.34 1023.94 1024.40 1024.65 1024.93 1024.92 1024.84 1024.98 1025.37 1025.67 1025.89 1026.07 1026.21 1026.35 1026.49 1026.62 1026.67 1026.64 1026.65 1026.64 1026.77 1026.94
1020.43 1019.48 1018.99 1018.51 1018.35 1018.15 1017.85 1017.83 1017.88 1017.57 1017.17 1017.35 1017.78 1018.39 1018.80 1019.06 1019.52 1019.67 1019.82 1020.30 1020.83 1021.43 1021.85 1022.07 1022.41 1022.69 1023.01 1023.37 1023.75 1024.28 1024.63 1024.89 1025.07 1025.15 1025.26 1025.51 1025.82 1026.00 1026.21 1026.43 1026.54 1026.58 1026.62 1026.68 1026.71 1026.68 1026.67 1026.78 1027.00
1019.43 1019.37 1019.18 1018.94 1018.51 1018.24 1018.11 1017.95 1018.03 1017.28 1017.42 1017.96 1018.30 1018.42 1018.79 1018.83 1019.08 1019.67 1019.84 1020.13 1020.56 1020.91 1021.41 1021.76 1022.25 1022.55 1022.86 1023.26 1023.60 1023.93 1024.27 1024.42 1024.78 1025.11 1025.19 1025.41 1025.69 1026.02 1026.28 1026.50 1026.65 1026.71 1026.69 1026.67 1026.74 1026.79 1026.84 1026.87 1027.01
1019.28 1019.68 1019.69 1019.22 1018.55 1018.63 1018.29 1017.99 1017.58 1017.39 1017.78 1018.32 1018.67 1018.55 1018.69 1018.83 1019.05 1018.85 1019.14 1019.67 1020.06 1020.40 1020.99 1021.32 1021.73 1022.30 1022.66 1022.95 1023.30 1023.68 1023.99 1024.24 1024.50 1024.68 1024.91 1024.95 1025.08 1025.45 1025.82 1026.22 1026.40 1026.39 1026.50 1026.63 1026.77 1026.88 1027.01 1027.09 1027.13
1019.66 1019.82 1019.97 1018.71 1018.79 1018.43 1018.45 1017.42 1016.76 1017.13 1017.81 1018.28 1018.72 1018.78 1018.59 1018.54 1018.29 1018.62 1018.94 1019.19 1019.69 1020.07 1020.46 1020.93 1021.14 1021.84 1022.39 1022.68 1022.94 1023.32 1023.76 1024.11 1024.29 1024.44 1024.63 1024.83 1024.90 1025.14 1025.52 1025.84 1025.96 1025.97 1026.29 1026.48 1026.65 1026.76 1026.94 1027.07 1027.09
1019.68 1019.41 1019.41 1018.97 1018.37 1018.13 1018.31 1017.65 1016.36 1016.93 1017.59 1017.93 1018.27 1018.65 1018.37 1018.30 1018.33 1018.19 1018.39 1018.72 1019.12 1019.45 1020.01 1020.55 1020.99 1021.40 1021.80 1022.30 1022.70 1023.06 1023.37 1023.87 1023.96 1024.19 1024.31 1024.35 1024.64 1024.82 1025.11 1025.29 1025.51 1025.94 1026.32 1026.54 1026.62 1026.83 1026.91 1027.08 1027.24
1018.89 1019.34 1019.12 1018.76 1018.38 1018.23 1017.98 1017.30 1016.64 1016.63 1017.26 1017.46 1017.72 1017.97 1018.06 1017.95 1017.35 1017.37 1017.85 1018.25 1018.55 1019.09 1019.46 1020.02 1020.56 1021.00 1021.37 1021.98 1022.60 1022.87 1023.06 1023.05 1023.53 1023.64 1023.79 1023.99 1024.15 1024.39 1024.79 1025.04 1025.30 1025.55 1026.04 1026.33 1026.57 1026.74 1026.81 1026.92 1027.13
1018.48 1018.90 1018.73 1018.20 1017.93 1018.03 1017.61 1017.36 1016.80 1016.50 1017.01 1017.29 1017.40 1017.38 1017.35 1017.05 1016.39 1017.17 1017.60 1017.94 1018.41 1018.67 1019.08 1019.31 1019.92 1020.44 1021.07 1021.65 1022.31 1022.70 1022.70 1022.85 1022.99 1023.15 1023.38 1023.66 1023.92 1023.97 1024.24 1024.62 1024.93 1025.26 1025.50 1025.64 1025.91 1026.27 1026.53 1026.80 1027.05
1018.55 1018.61 1018.44 1018.18 1017.91 1018.22 1017.60 1017.02 1016.49 1016.50 1016.12 1016.02 1016.23 1016.35 1016.25 1016.50 1016.66 1016.69 1017.05 1017.39 1017.65 1017.76 1018.07 1018.69 1019.04 1019.65 1020.08 1020.69 1021.14 1021.89 1022.19 1022.51 1022.30 1022.48 1022.77 1023.05 1023.41 1023.72 1023.96 1024.33 1024.72 1024.94 1025.28 1025.55 1025.77 1026.01 1026.46 1026.65 1026.89
1018.05 1018.21 1018.49 1018.45 1018.16 1018.30 1018.05 1016.94 1016.01 1015.11 1014.79 1014.93 1014.90 1014.87 1015.01 1015.41 1015.58 1015.84 1016.26 1016.43 1016.76 1017.12 1017.27 1017.53 1018.15 1018.83 1019.31 1019.83 1020.53 1021.42 1021.70 1022.15 1022.44 1022.41 1022.28 1022.49 1022.80 1023.13 1023.55 1023.99 1024.28 1024.47 1024.80 1025.10 1025.35 1025.59 1025.89 1026.16 1026.43
1017.79 1018.23 1018.31 1018.52 1018.57 1018.63 1018.05 1016.75 1015.40 1014.44 1014.02 1013.92 1013.57 1013.80 1013.84 1014.31 1014.67 1015.01 1015.33 1015.66 1015.83 1015.94 1016.36 1017.02 1017.48 1017.92 1018.75 1019.32 1019.67 1019.93 1020.55 1020.85 1021.11 1021.62 1021.93 1022.10 1022.44 1022.66 1022.85 1023.08 1023.42 1023.78 1024.04 1024.32 1024.47 1024.75 1025.08 1025.53 1025.81
1017.12 1017.67 1018.40 1018.62 1018.81 1018.66 1018.25 1017.96 1014.43 1014.04 1013.61 1012.54 1012.40 1012.45 1012.51 1012.69 1013.25 1013.69 1014.10 1014.34 1014.55 1014.97 1015.42 1016.08 1016.85 1017.36 1017.76 1018.38 1018.79 1019.34 1019.71 1020.11 1020.63 1021.11 1021.34 1021.63 1021.79 1021.92 1022.05 1022.31 1022.55 1022.81 1023.18 1023.45 1023.74 1024.17 1024.45 1024.70 1024.95
1017.28 1018.13 1018.67 1019.04 1019.24 1018.34 1017.67 1017.58 1013.83 1013.30 1012.14 1011.65 1011.47 1011.34 1011.43 1011.76 1012.11 1012.43 1012.89 1013.38 1013.68 1014.13 1014.65 1015.16 1015.84 1016.29 1016.99 1017.54 1018.03 1018.38 1018.78 1019.44 1020.06 1020.42 1020.74 1020.90 1021.01 1021.26 1021.33 1021.47 1021.67 1022.00 1022.32 1022.53 1022.80 1023.15 1023.49 1023.65 1023.78
1017.07 1017.58 1018.32 1019.29 1019.15 1017.28 1016.59 1016.75 1012.86 1011.69 1011.09 1011.05 1011.05 1010.88 1010.75 1010.90 1011.34 1011.72 1012.24 1012.79 1013.09 1013.47 1013.95 1014.42 1015.08 1015.66 1016.08 1016.63 1017.18 1017.45 1017.92 1018.72 1019.05 1019.43 1019.72 1020.15 1020.17 1020.12 1020.08 1020.38 1020.84 1020.95 1021.12 1021.34 1021.64 1022.01 1022.17 1022.35 1022.55
1014.45 1015.34 1015.79 1017.19 1017.99 1017.31 1017.36 1014.75 1011.67 1010.91 1010.19 1010.25 1010.43 1010.40 1010.53 1010.79 1010.89 1011.00 1011.25 1011.70 1012.16 1012.64 1013.07 1013.59 1014.29 1014.71 1015.29 1015.82 1016.22 1016.83 1017.39 1017.61 1017.82 1018.16 1018.60 1018.74 1018.79 1018.74 1018.91 1019.31 1019.53 1019.88 1020.29 1020.56 1020.91 1021.24 1021.26 1021.50 1021.68
1014.33 1014.78 1014.84 1016.52 1018.31 1017.82 1016.35 1013.90 1012.05 1010.60 1010.30 1009.99 1010.11 1010.44 1010.38 1010.39 1010.36 1010.52 1010.75 1010.85 1011.40 1011.97 1012.26 1012.73 1013.24 1013.84 1014.43 1014.75 1015.21 1015.80 1016.28 1016.69 1016.71 1017.01 1017.59 1017.66 1017.76 1017.96 1018.36 1018.70 1019.09 1019.29 1019.57 1019.73 1020.13 1020.48 1020.56 1020.75 1020.75
1012.71 1013.47 1015.08 1015.99 1017.32 1017.35 1015.32 1013.67 1010.87 1009.84 1009.44 1009.32 1009.79 1009.70 1009.92 1010.25 1010.12 1010.24 1010.61 1010.64 1010.80 1011.06 1011.56 1012.27 1012.62 1012.98 1013.27 1013.70 1014.29 1014.77 1015.31 1015.73 1015.92 1016.57 1016.70 1016.92 1017.28 1017.65 1017.93 1018.28 1018.65 1018.94 1019.01 1019.17 1019.49 1019.62 1019.56 1019.67 1019.69
1012.50 1012.78 1013.48 1014.09 1015.02 1015.04 1014.57 1011.27 1009.17 1008.62 1008.27 1008.48 1008.73 1008.99 1009.39 1009.75 1009.92 1010.08 1010.23 1010.37 1010.74 1011.08 1011.34 1011.66 1012.15 1012.63 1013.11 1013.51 1013.94 1014.35 1014.60 1015.00 1015.64 1016.03 1016.24 1016.54 1016.80 1017.05 1017.39 1017.60 1017.85 1018.08 1018.20 1018.27 1018.41 1018.56 1018.59 1018.62 1018.64
1010.68 1011.08 1011.61 1012.53 1013.15 1013.45 1013.05 1009.47 1007.69 1007.63 1007.64 1007.87 1008.12 1008.56 1008.88 1009.51 1009.68 1010.22 1010.46 1010.50 1010.70 1011.12 1011.53 1011.70 1011.98 1012.38 1012.73 1013.01 1013.43 1013.87 1014.31 1014.70 1015.10 1015.37 1015.55 1015.95 1016.19 1016.32 1016.51 1016.83 1017.07 1017.23 1017.34 1017.41 1017.46 1017.52 1017.66 1017.70 1017.81
Wind_Speed
9 7 2 5 5 5 0 2 1 3 2 2 3 2 6 4 2 3 1 5 7 6 6 7 11 12 12 12 12 13 15 16 17 18 18 18 17 16 16 16 15 15 15 15 16 16 16 18 17
6 4 5 3 6 3 4 3 5 3 5 8 6 3 6 3 2 6 6 5 6 7 7 6 10 11 12 12 11 12 14 16 17 17 17 18 16 16 15 16 15 14 14 15 15 15 15 17 17
5 4 4 5 3 3 4 3 5 3 7 1 5 5 3 2 1 7 6 8 7 6 6 7 10 11 13 12 11 11 12 14 15 15 16 18 17 15 16 15 15 13 13 15 16 15 16 17 17
4 5 4 4 3 3 4 4 5 7 3 5 4 6 2 2 7 6 11 10 8 5 5 8 11 14 12 10 10 11 12 12 15 17 17 18 16 15 13 15 13 13 13 14 15 15 16 16 16
4 3 4 2 3 3 2 5 6 3 3 3 1 4 1 2 6 14 12 9 10 6 5 5 11 12 12 11 10 12 12 14 14 16 16 17 15 15 13 13 13 12 13 13 14 15 15 14 14
3 1 3 1 4 5 1 4 5 3 3 4 6 5 3 5 12 8 10 8 7 9 5 4 8 10 10 10 11 13 12 13 15 15 14 17 15 14 12 12 11 11 12 12 12 14 14 13 12
3 3 2 1 2 3 2 5 4 5 6 4 10 6 1 7 9 11 9 9 7 6 6 4 4 6 9 11 9 10 10 9 12 11 12 15 13 11 10 11 10 10 10 10 11 11 11 11 10
2 2 3 2 1 4 2 5 1 4 1 3 4 7 6 7 12 11 10 9 7 6 6 6 5 5 5 5 9 8 9 10 9 9 11 11 11 11 9 7 8 9 9 9 9 8 9 11 9
2 2 4 4 4 3 5 0 1 2 7 1 2 6 4 13 12 11 11 7 5 4 5 5 6 5 5 5 4 9 9 9 9 10 11 8 4 6 6 5 6 7 7 7 6 7 6 8 8
2 4 7 4 2 1 4 2 4 3 4 1 2 1 5 16 15 16 15 12 9 9 8 5 5 6 5 4 4 5 6 4 5 6 6 4 4 4 4 4 5 5 5 4 4 3 4 6 3
2 4 5 2 1 1 3 2 3 5 4 7 9 7 11 13 12 14 14 16 14 10 9 7 6 6 7 5 3 2 1 3 4 6 5 5 4 4 3 2 0 1 2 1 3 3 2 3 3
2 5 2 0 3 2 4 6 4 6 5 3 8 15 14 14 14 15 15 14 13 10 10 9 7 7 6 5 4 3 3 1 2 4 6 4 3 3 3 2 2 1 0 1 1 1 2 2 3
3 3 2 3 6 2 3 4 4 7 6 3 9 12 16 14 11 7 8 11 11 12 10 11 8 7 6 7 5 4 4 3 3 3 3 3 3 3 3 3 3 3 2 2 2 2 2 3 4
8 5 3 4 3 6 4 5 5 5 3 5 10 13 14 15 14 6 8 10 13 12 12 11 10 8 7 5 6 6 5 6 4 4 4 5 4 4 4 3 3 3 3 3 3 3 2 2 2
5 4 3 6 3 4 3 9 12 7 4 5 8 9 11 11 9 15 13 11 13 12 11 13 13 9 10 9 8 6 5 5 5 5 6 8 7 7 6 4 4 4 4 4 2 1 1 1 1
5 5 4 5 8 6 5 16 14 9 8 10 8 7 10 12 15 13 9 10 10 11 13 11 11 11 10 9 8 6 5 4 4 4 5 7 7 6 5 4 5 4 4 3 3 3 2 2 3
5 5 5 3 10 4 11 7 16 9 9 9 9 10 12 11 10 11 10 12 11 12 11 12 11 13 12 9 7 6 7 5 5 4 5 7 7 7 6 5 4 4 3 3 3 3 2 2 2
6 12 5 9 7 6 5 16 8 2 8 14 11 13 12 12 19 17 12 10 11 11 11 11 10 11 11 7 5 4 4 6 4 6 7 6 6 6 6 4 5 5 4 4 2 3 3 2 2
8 6 7 4 5 5 15 16 15 15 3 8 10 9 14 17 17 11 11 10 8 10 12 13 13 11 10 7 7 6 8 7 4 5 7 7 6 7 8 5 5 4 6 6 5 3 5 4 3
6 8 10 4 5 7 4 17 15 7 10 14 12 13 15 12 11 8 13 13 14 16 15 14 15 14 13 10 8 4 4 3 6 5 6 7 8 8 7 6 5 6 4 5 5 5 2 2 4
15 13 5 2 3 2 5 11 5 10 17 12 11 12 12 16 17 13 14 16 16 16 17 17 16 16 15 14 8 3 3 1 3 4 6 8 9 8 8 7 6 7 6 6 6 6 7 4 4
20 5 4 3 4 4 7 8 6 7 12 11 18 15 15 14 12 12 14 15 17 19 15 15 16 17 14 15 12 14 11 11 9 8 5 5 8 9 9 9 9 9 7 8 8 7 7 4 7
10 10 6 3 2 1 3 5 7 1 8 12 14 16 18 18 15 16 16 18 16 18 16 15 14 15 16 16 16 11 13 9 7 5 6 7 7 11 11 11 11 11 8 9 9 6 8 6 7
7 6 4 2 2 9 9 8 7 8 12 6 7 16 17 14 13 15 15 15 14 15 15 15 17 17 16 16 16 17 18 13 8 8 8 7 7 7 11 12 12 11 10 11 10 10 11 11 10
9 9 4 7 6 11 6 9 17 6 7 8 9 10 12 12 14 13 13 13 14 14 16 14 17 17 17 17 17 19 17 14 15 13 10 9 8 8 12 13 12 11 12 12 11 12 13 12 12
30 23 6 10 9 6 3 13 8 14 20 9 11 8 6 8 9 13 15 14 15 15 17 17 16 17 16 17 18 16 16 12 12 13 10 10 11 11 10 12 13 13 13 12 11 10 11 11 12
15 18 9 6 3 3 7 9 9 10 15 9 11 9 10 9 8 11 10 12 13 13 16 18 17 16 15 18 16 16 16 16 15 15 11 11 12 9 8 10 11 12 12 13 11 10 12 11 12
16 16 11 2 6 6 6 7 9 9 14 12 10 15 11 9 9 7 7 9 9 10 11 12 14 16 16 17 15 14 14 15 15 11 14 12 10 7 7 8 10 10 11 12 12 12 13 13 11
9 17 9 5 6 7 3 10 10 12 15 12 12 10 10 10 8 8 5 4 7 6 8 9 9 11 11 11 12 12 12 12 10 11 11 10 7 7 8 9 11 13 13 13 13 14 14 14 14
20 19 20 13 17 4 0 9 2 11 3 8 10 10 7 8 8 5 5 4 4 6 7 8 7 8 8 8 8 8 6 7 7 9 8 7 10 9 12 11 12 13 13 14 13 13 12 13 13
Wind_Direction
316 316 62 39 54 62 268 242 167 124 98 325 54 127 130 60 119 198 16 158 130 137 126 115 125 125 126 123 119 121 117 114 110 107 104 100 99 97 94 89 91 90 93 95 95 86 83 89 91
306 323 42 75 83 62 274 250 165 172 145 131 90 72 50 80 89 120 112 150 130 126 114 115 122 130 134 131 127 127 128 122 116 118 115 109 105 99 100 94 93 91 94 98 94 85 91 93 90
315 24 71 86 110 167 208 215 157 104 161 122 99 49 103 114 91 148 131 131 112 108 118 133 124 127 127 124 124 122 126 122 117 113 124 112 108 102 99 96 92 93 98 102 96 87 97 91 89
358 2 41 83 200 240 210 188 169 140 149 60 116 72 37 191 165 163 137 123 111 113 120 135 130 129 130 134 137 130 127 124 123 108 116 114 111 106 98 101 98 96 97 102 97 91 96 94 94
29 38 49 63 284 262 260 155 155 129 119 100 99 158 48 9 128 136 136 131 131 120 133 141 140 139 140 142 136 111 111 121 123 113 113 113 111 106 102 106 102 98 99 104 101 93 90 95 97
27 90 61 190 269 307 111 155 152 149 135 158 81 114 140 137 130 143 139 130 134 136 136 138 134 135 141 132 135 123 124 126 123 118 118 115 112 109 115 113 106 103 101 101 96 91 88 93 100
117 85 189 253 244 314 205 133 173 171 147 218 145 114 193 167 155 144 137 133 128 130 124 128 125 134 131 131 126 126 122 104 100 119 114 110 111 105 114 119 112 106 103 100 91 85 85 89 102
108 120 144 255 356 276 301 153 121 150 160 107 146 164 187 194 155 138 132 143 129 134 136 148 140 132 116 131 131 119 116 107 100 81 93 94 98 99 93 83 105 105 98 95 92 84 77 70 78
287 105 186 199 171 259 343 257 53 83 114 50 342 159 228 138 138 135 134 138 129 146 150 154 149 138 134 129 126 119 121 115 101 93 98 86 94 103 100 111 102 108 104 103 96 82 60 66 72
170 202 202 185 182 312 301 283 169 126 123 288 315 26 119 142 153 154 160 162 168 175 170 166 149 143 135 119 129 123 124 129 133 130 124 114 124 127 117 123 130 131 127 129 123 80 47 74 83
201 225 172 236 113 33 288 359 316 135 230 202 194 164 152 157 167 165 171 169 174 183 174 172 160 150 143 123 111 103 118 142 142 145 142 148 145 138 137 139 118 124 116 52 37 36 55 103 111
267 252 238 58 62 36 340 314 297 194 233 308 186 166 156 170 179 177 175 174 169 174 178 173 171 163 161 141 143 148 141 136 157 172 163 157 155 158 171 175 188 156 131 193 177 157 138 112 112
235 255 214 247 313 221 324 291 252 265 273 37 135 159 176 175 181 192 177 168 167 174 184 178 175 173 164 161 150 153 169 167 197 190 179 152 170 178 166 198 198 207 202 216 207 192 179 158 126
205 202 290 259 215 321 351 288 31 301 118 135 163 176 185 185 183 172 180 173 178 175 182 175 182 181 165 168 170 177 176 185 178 193 196 183 173 180 193 195 222 234 219 215 206 197 194 182 131
152 135 339 253 217 225 179 279 232 242 155 194 206 190 189 200 187 200 189 184 181 182 174 180 181 179 178 180 183 182 194 186 191 194 198 194 185 188 186 195 209 219 215 219 208 216 162 158 110
142 143 175 229 164 218 145 257 261 212 173 216 214 212 197 205 209 205 187 185 180 179 185 180 184 181 185 190 186 181 187 193 200 198 198 210 199 187 183 193 215 207 196 192 184 185 196 201 194
213 194 186 292 200 129 181 246 260 195 196 222 209 215 217 210 220 216 196 187 184 185 183 185 183 184 188 188 186 186 183 190 203 194 203 205 198 188 195 207 206 189 195 200 190 203 181 194 219
189 207 201 204 212 192 198 240 254 250 187 222 214 212 217 218 222 212 204 187 182 195 189 187 186 186 184 179 181 186 187 198 191 208 212 202 205 196 194 199 201 180 185 208 196 197 201 202 190
157 178 207 220 178 138 220 237 242 247 211 239 240 218 223 220 224 215 206 202 193 191 190 193 188 187 179 180 188 205 210 211 195 199 209 204 206 199 198 204 195 187 198 200 190 178 192 221 153
183 188 225 304 164 182 243 252 245 233 240 224 227 233 226 229 226 201 203 199 202 205 202 198 197 188 190 194 195 199 165 220 222 197 204 207 201 209 205 197 202 198 199 203 196 176 181 222 188
214 209 198 188 104 292 355 272 226 244 238 228 232 226 227 221 218 211 202 201 204 205 204 201 198 196 197 192 177 131 116 112 189 218 216 216 206 205 203 199 197 202 199 210 202 197 189 204 209
218 161 182 184 126 230 165 281 242 236 239 214 233 219 227 218 216 217 208 202 204 210 207 205 199 197 198 195 198 199 212 217 221 229 221 204 200 210 204 202 204 207 204 208 208 201 206 175 230
212 160 200 197 184 348 184 269 260 179 251 244 226 231 223 221 207 207 204 206 207 206 199 200 197 199 196 198 204 205 212 217 220 216 211 201 203 212 210 208 206 210 205 217 211 196 204 202 223
132 107 70 81 126 241 218 205 245 202 226 250 227 229 226 217 208 204 206 205 211 203 199 191 195 201 195 198 201 205 214 212 209 209 212 213 212 210 216 211 213 214 213 212 213 215 211 212 218
187 176 174 207 207 248 191 198 243 215 238 227 245 237 229 220 214 208 199 196 203 197 197 192 195 201 198 198 201 208 211 207 214 214 215 211 207 213 218 208 211 215 215 215 211 211 218 214 219
195 197 171 196 194 209 111 238 234 223 251 229 233 244 258 225 211 206 204 201 202 196 195 193 193 203 194 198 206 207 208 210 214 214 212 217 218 221 213 208 214 218 219 219 216 223 227 225 228
187 202 191 98 24 76 204 279 295 252 260 248 237 235 244 242 213 214 203 197 198 197 200 196 194 203 197 201 203 205 207 210 216 217 212 219 223 226 213 208 211 217 218 220 221 231 236 230 230
182 176 184 194 158 249 254 282 230 222 225 229 224 223 235 242 240 220 208 204 204 199 197 199 200 201 200 202 203 207 208 213 219 213 221 222 231 214 205 207 215 219 221 224 224 234 235 234 233
165 187 206 206 164 186 232 249 206 212 218 215 220 213 213 221 228 227 211 220 208 184 177 185 185 187 196 195 200 205 212 212 214 219 225 224 219 206 208 204 212 220 224 226 225 232 235 230 235
197 204 195 203 210 228 77 273 202 238 203 207 219 208 205 218 217 221 208 173 171 190 189 195 191 191 197 200 196 200 194 188 198 213 217 204 215 209 214 216 220 227 229 233 228 231 227 226 231